ON1TG-13 Weather Reports


time (UTC)temp
C
wind
direction
speed
KPH
gust
KPH
rain 1hr
cm
rain 24hr
cm
rain mn
cm
humidity
%
barometer
mb
20260507224228 22 32 1.6 91.7 0.00 0.00 0.00 21 1016.6
20260507222721 22 19 0.0 25.7 0.00 0.00 0.00 21 1016.7
20260507221212 22 8 0.0 3.2 0.00 0.00 0.00 21 1016.7
20260507215705 22 5 11.3 294.5 0.00 0.00 0.00 21 1016.7
20260507214157 22 9 1.6 8.0 0.00 0.00 0.00 21 1016.6
20260507212650 21 38 6.4 9.7 0.00 0.00 0.00 21 1016.8
20260507211142 21 37 6.4 14.5 0.00 0.00 0.00 21 1016.7
20260507205634 22 34 1.6 64.4 0.00 0.00 0.00 21 1016.7
20260507204126 20 41 6.4 9.7 0.00 0.00 0.00 21 1016.6
20260507202619 21 38 6.4 88.5 0.00 0.00 0.00 21 1016.5
20260507201111 21 40 8.0 11.3 0.00 0.00 0.00 21 1016.4
20260507195604 21 41 9.7 12.9 0.00 0.00 0.00 21 1016.2
20260507194057 20 46 9.7 12.9 0.00 0.00 0.00 21 1016.1
20260507192548 21 41 9.7 14.5 0.00 0.00 0.00 21 1016.0
20260507191040 21 37 9.7 14.5 0.00 0.00 0.00 21 1015.9
20260507185533 21 36 8.0 12.9 0.00 0.00 0.00 21 1015.9
20260507184026 21 38 8.0 12.9 0.00 0.00 0.00 21 1015.9
20260507182519 21 39 9.7 14.5 0.00 0.00 0.00 21 1016.0
20260507181010 21 25 9.7 17.7 0.00 0.00 0.00 21 1015.9
20260507175503 20 38 14.5 24.1 0.00 0.00 0.00 21 1016.0
20260507173956 20 44 16.1 20.9 0.00 0.00 0.00 21 1015.9
20260507172448 21 36 12.9 16.1 0.00 0.00 0.00 21 1016.0
20260507170940 21 33 12.9 19.3 0.00 0.00 0.00 21 1016.1
20260507165433 21 34 11.3 22.5 0.00 0.00 0.00 21 1016.1
20260507163926 22 19 12.9 22.5 0.00 0.00 0.00 21 1016.0
20260507162419 21 27 14.5 22.5 0.00 0.00 0.00 21 1016.2
20260507160912 21 20 12.9 24.1 0.00 0.00 0.00 21 1016.1
20260507155404 22 21 16.1 27.4 0.00 0.00 0.00 21 1016.1
20260507153857 22 16 16.1 27.4 0.00 0.00 0.00 21 1015.8
20260507152350 22 20 16.1 32.2 0.00 0.00 0.00 21 1015.9
20260507145335 22 17 16.1 30.6 0.00 0.00 0.00 21 1016.0
20260507143828 21 18 14.5 27.4 0.00 0.00 0.00 21 1016.1
20260507142320 21 19 12.9 27.4 0.00 0.00 0.00 21 1016.0
20260507140813 22 20 12.9 25.7 0.00 0.00 0.00 21 1016.1
20260507135306 22 12 12.9 27.4 0.00 0.00 0.00 21 1016.1
20260507133759 21 13 14.5 25.7 0.00 0.00 0.00 21 1016.2
20260507132252 22 19 12.9 25.7 0.00 0.00 0.00 21 1016.0
20260507130744 23 19 11.3 22.5 0.00 0.00 0.00 21 1016.2
20260507125236 22 24 12.9 25.7 0.00 0.00 0.00 21 1016.2
20260507123728 22 25 14.5 27.4 0.00 0.00 0.00 21 1016.1
20260507122220 23 20 11.3 24.1 0.00 0.00 0.00 21 1016.0
20260507120712 22 18 14.5 27.4 0.00 0.00 0.00 21 1016.1
20260507115206 22 21 17.7 30.6 0.00 0.00 0.00 21 1016.0
20260507113728 23 25 12.9 25.7 0.00 0.00 0.00 21 1016.0
20260507112151 23 18 12.9 25.7 0.00 0.00 0.00 21 1015.9
20260507110643 23 12 12.9 22.5 0.00 0.00 0.00 21 1016.1
20260507105145 24 19 9.7 20.9 0.00 0.00 0.00 21 1016.1
20260507103629 24 17 6.4 20.9 0.00 0.00 0.00 21 1016.1
20260507102121 23 13 9.7 22.5 0.00 0.00 0.00 21 1016.2
20260507100614 21 359 14.5 25.7 0.00 0.00 0.00 21 1016.1
20260507095107 22 358 12.9 22.5 0.00 0.00 0.00 21 1016.0
20260507093559 22 356 11.3 22.5 0.00 0.00 0.00 21 1015.8
20260507090544 28 128 3.2 8.0 0.00 0.00 0.00 21 1015.8
20260507085037 24 45 4.8 9.7 0.00 0.00 0.00 21 1015.7
20260507083528 23 39 6.4 12.9 0.00 0.00 0.00 21 1015.6
20260507082021 23 69 4.8 43.5 0.00 0.00 0.00 21 1015.6
20260507080514 21 47 8.0 16.1 0.00 0.00 0.00 21 1015.6
20260507075007 21 62 6.4 12.9 0.00 0.00 0.00 21 1015.5
20260507073459 20 63 8.0 12.9 0.00 0.00 0.00 21 1015.5
20260507071953 18 49 11.3 17.7 0.00 0.00 0.00 21 1015.4
20260507070444 19 52 9.7 17.7 0.00 0.00 0.00 21 1015.3
20260507064937 19 43 12.9 17.7 0.00 0.00 0.00 21 1015.1
20260507063429 17 50 12.9 17.7 0.00 0.00 0.00 21 1015.1
20260507061922 19 46 11.3 17.7 0.00 0.00 0.00 21 1015.1
20260507060414 18 44 12.9 20.9 0.00 0.00 0.00 21 1014.9
20260507054903 18 41 12.9 24.1 0.00 0.00 0.00 21 1014.8
20260507053344 18 43 14.5 22.5 0.00 0.00 0.00 21 1014.6
20260507051827 19 36 9.7 16.1 0.00 0.00 0.00 21 1014.7
20260507050258 17 44 9.7 17.7 0.00 0.00 0.00 21 1014.5
20260507044732 18 40 11.3 19.3 0.00 0.00 0.00 21 1014.3
20260507043207 18 37 12.9 24.1 0.00 0.00 0.00 21 1014.1
20260507041635 17 36 14.5 22.5 0.00 0.00 0.00 21 1014.0
20260507040055 20 28 11.3 19.3 0.00 0.00 0.00 21 1014.0
20260507034502 19 26 12.9 19.3 0.00 0.00 0.00 21 1013.8
20260507032916 20 21 9.7 17.7 0.00 0.00 0.00 21 1013.7
20260507031344 20 17 9.7 17.7 0.00 0.00 0.00 21 1013.6
20260507025818 21 20 6.4 14.5 0.00 0.00 0.00 21 1013.5
20260507022735 21 19 9.7 17.7 0.00 0.00 0.00 21 1013.4
20260507021216 20 16 9.7 17.7 0.00 0.00 0.00 21 1013.4
20260507015704 21 14 11.3 22.5 0.00 0.00 0.00 21 1013.2
20260507014152 20 14 14.5 24.1 0.00 0.00 0.00 21 1013.1
20260507012639 20 10 12.9 33.8 0.00 0.00 0.00 21 1013.1
20260507011131 19 8 16.1 30.6 0.00 0.00 0.00 21 1013.1
20260507005620 20 5 12.9 25.7 0.00 0.00 0.00 21 1013.1
20260507004105 19 13 16.1 30.6 0.00 0.00 0.00 21 1013.0
20260507002554 20 10 16.1 30.6 0.00 0.00 0.00 21 1013.1
20260507001046 19 359 19.3 33.8 0.00 0.00 0.00 21 1013.1
20260506235539 20 10 14.5 32.2 0.00 0.00 0.00 21 1013.2
20260506234025 20 2 16.1 27.4 0.00 0.00 0.00 21 1013.0
20260506232513 19 10 16.1 30.6 0.00 0.00 0.00 21 1012.9
20260506230957 19 12 16.1 32.2 0.00 0.00 0.00 21 1013.0